Regional Weather Roundup
Issued by NWS

Home | Current Version | Previous Version | Text Only | Print | Product List | Glossary On
Versions: 1 2 3 4 5 6 7 8 9 10 11 12 13 14 15 16 17 18 19 20 21 22 23 24 25 26 27 28 29 30 31 32 33 34 35 36 37 38 39 40 41 42 43 44 45 46 47 48 49 50
000
ASUS43 KBIS 221010
RWRND

NORTH DAKOTA REGIONAL WEATHER ROUNDUP
NATIONAL WEATHER SERVICE BISMARCK ND
500 AM CDT MON SEP 22 2014

NOTE: "FAIR" INDICATES FEW OR NO CLOUDS BELOW 12,000 FEET WITH NO
SIGNIFICANT WEATHER AND/OR OBSTRUCTIONS TO VISIBILITY.


NDZ001>003-009>011-017-221100-
NORTHWEST NORTH DAKOTA

CITY           SKY/WX    TMP DP  RH WIND       PRES   REMARKS
WILLISTON      CLEAR     42  36  79 CALM      30.08F
MINOT          CLEAR     54  42  64 S8        30.11S
MINOT AFB      CLEAR     48  43  82 S7        30.10S
$$

NDZ018>021-031>035-040>046-221100-
SOUTHWEST NORTH DAKOTA

CITY           SKY/WX    TMP DP  RH WIND       PRES   REMARKS
BISMARCK       CLEAR     44  41  89 E3        30.18S
DICKINSON      CLEAR     47  39  74 S13       30.11F
GARRISON         N/A     46  42  86 CALM      30.14S
HETTINGER ARPT CLEAR     48  38  68 SE7       30.15F
$$

NDZ004>008-012>016-024-026-027-054-221100-
NORTHEAST NORTH DAKOTA

CITY           SKY/WX    TMP DP  RH WIND       PRES   REMARKS
GRAND FORKS    CLEAR     45  44  97 S5        30.14S
GRND FRKS AFB  CLEAR     46  46  99 W6        30.14S
DEVILS LAKE    CLEAR     55  45  67 SW9       30.13S
$$

NDZ022-023-025-028>030-036>039-047>053-221100-
SOUTHEAST NORTH DAKOTA

CITY           SKY/WX    TMP DP  RH WIND       PRES   REMARKS
FARGO          CLEAR     48  45  89 S8        30.18S
JAMESTOWN      CLEAR     48  44  86 S6        30.17F
$$




USA.gov is the U.S. government's official web portal to all federal, state and local government web resources and services.